This is the latest recevied weather packets stored in our database for station/object EA1L-13. If no packets are shown the sender has not sent any weather packets the latest 10 day(s).
| Time | Temp. | Humidity | Pressure | Rain* | Wind** | Luminosity | Snow |
|---|---|---|---|---|---|---|---|
| 1777495504 | 15° C | 100% | 1007 hPa | 0 mm | - | - | - |
| 1777494604 | 15° C | 100% | 1006.9 hPa | 0 mm | - | - | - |
| 1777493705 | 15° C | 100% | 1006.7 hPa | 0 mm | - | - | - |
| 1777492805 | 15° C | 100% | 1006.5 hPa | 0 mm | - | - | - |
| 1777491904 | 15° C | 100% | 1006.1 hPa | 0 mm | - | - | - |
| 1777491005 | 15° C | 100% | 1005.7 hPa | 0 mm | - | - | - |
| 1777490105 | 15° C | 100% | 1005.5 hPa | 0 mm | - | - | - |
| 1777489204 | 15.56° C | 100% | 1005.6 hPa | 0 mm | - | - | - |
| 1777488304 | 15° C | 100% | 1005.7 hPa | 0 mm | - | - | - |
| 1777487405 | 15° C | 100% | 1005.6 hPa | 0.25 mm | - | - | - |
| 1777486505 | 15° C | 100% | 1005.4 hPa | 0.51 mm | - | - | - |
| 1777485604 | 15° C | 100% | 1005.3 hPa | 0.51 mm | - | - | - |
| 1777484705 | 15° C | 100% | 1005.3 hPa | 1.02 mm | - | - | - |
| 1777483805 | 15° C | 100% | 1005.3 hPa | 1.52 mm | - | - | - |
| 1777482905 | 15° C | 100% | 1005.3 hPa | 1.27 mm | - | - | - |
| 1777482004 | 15° C | 100% | 1005.3 hPa | 1.27 mm | - | - | - |
| 1777481105 | 15° C | 100% | 1005.3 hPa | 0.76 mm | - | - | - |
| 1777480206 | 15° C | 100% | 1005.3 hPa | 0.25 mm | - | - | - |
| 1777479304 | 15.56° C | 100% | 1005.1 hPa | 0.25 mm | - | - | - |
| 1777478404 | 15.56° C | 100% | 1004.9 hPa | 0.25 mm | - | - | - |
| 1777477504 | 15.56° C | 100% | 1004.9 hPa | 0.25 mm | - | - | - |
| 1777476605 | 15.56° C | 100% | 1004.9 hPa | 0 mm | - | - | - |
| 1777475704 | 15.56° C | 100% | 1004.6 hPa | 0 mm | - | - | - |
| 1777474804 | 16.11° C | 100% | 1004.8 hPa | 0 mm | - | - | - |
| 1777473904 | 16.11° C | 100% | 1004.9 hPa | 0 mm | - | - | - |
* Rain latest hour (hover to see other rain measurements)
** Current wind speed in m/s (hover to see current wind gust speed)